[[{"header":{"parameterUnit":"m.s-1","parameterCategory":1,"la1":30.2991,"la2":30.254,"lo1":-89.0895,"lo2":-89.0444,"dy":0.0017,"dx":0.0017,"nx":28,"ny":28,"refTime":"2024-04-20T03:00:00:Z","depth":0,"parameterNumber":2,"parameterNumberName":"U-component_of_WINDS"},"data":[0,0,0,0,0,0,0,0,0,0,0,0,0,0,0,0,0,0,0,0,0,0,0,0,0,0,0,0,0,0,0,0,0,0,0,0,0,0,0,0,0,0,0,0,0,0,0,0,0,0,0,0,0,0,0,0,0,0,0.4957,0.4958,0,0.5057,0.5058,0.5059,0.5059,0.5057,0.5056,0.5055,0.516,0.5164,0.5168,0,0,0,0,0,0,0,0,0,0,0,0,0,0.4764,0.4768,0.4957,0.4958,0.4959,0.5057,0.5058,0.506,0.5059,0.5057,0.5056,0.5054,0.5159,0.5164,0.5169,0,0,0,0,0,0,0,0,0,0,0,0,0,0.4855,0.4769,0.4956,0.497,0.4973,0.5057,0.5058,0.506,0.5059,0.5057,0.5055,0.5053,0.5157,0.5163,0.5169,0.5247,0,0,0.5188,0.519,0,0,0,0,0,0,0,0,0.485,0.4862,0.4967,0.497,0.4972,0.5043,0.5029,0.5123,0.506,0.5026,0.5055,0.5052,0.5123,0.5132,0.5155,0.5252,0.5256,0.5188,0.5192,0.5195,0.5196,0,0,0,0,0,0,0,0.4843,0.4857,0.4996,0.4969,0.4972,0.4972,0.4982,0.5047,0.5085,0.5029,0.5029,0.5041,0.5124,0.5149,0.5158,0.5258,0.5188,0.5194,0.5197,0.52,0.542,0.5422,0,0,0,0,0,0,0.4834,0.4852,0.4993,0.4999,0.4905,0.4977,0.4989,0.5022,0.5084,0.5091,0.5043,0.5041,0.514,0.5151,0.5161,0.5255,0.5195,0.52,0.5204,0.5418,0.5421,0.5423,0,0,0,0,0,0,0.483,0.4847,0.4989,0.4926,0.4944,0.4982,0.502,0.5026,0.5051,0.5094,0.5101,0.5061,0.5139,0.5153,0.5225,0.5258,0.5203,0.5209,0.5415,0.5419,0.5422,0.5443,0,0,0,0,0,0,0.4824,0.4845,0.4875,0.4926,0.4947,0.5051,0.5022,0.5029,0.5061,0.5059,0.5114,0.5121,0.5138,0.5216,0.5231,0.5266,0.5213,0.5413,0.5417,0.5421,0.5439,0.5446,0.5452,0,0,0,0,0,0.4817,0.4878,0.4877,0.4894,0.4985,0.5053,0.5065,0.5083,0.5064,0.5094,0.5121,0.5119,0.5252,0.5223,0.524,0.5277,0.5411,0.5416,0.5421,0.5436,0.5445,0.5452,0,0,0,0,0,0,0.4831,0.4885,0.4884,0.4963,0.5003,0.5052,0.5091,0.5092,0.5139,0.5136,0.5157,0.5169,0.524,0.5266,0.5233,0.5354,0.5329,0.5338,0.5335,0.5344,0.535,0.5342,0.5218,0,0,0,0,0,0.4843,0.4892,0.4937,0.5003,0.5022,0.5053,0.5083,0.5093,0.5136,0.5154,0.5187,0.5229,0.5279,0.5313,0.5363,0.5442,0.5454,0.5476,0.5483,0.5488,0.5495,0.5537,0.5548,0.5439,0.5439,0.5439,0,0,0.4869,0.4904,0.4935,0.5006,0.5038,0.5089,0.5068,0.5123,0.5161,0.5162,0.5232,0.5257,0.5305,0.5381,0.5416,0.5404,0.5527,0.5494,0.5498,0.5503,0.5544,0.5554,0.5563,0.5443,0.5442,0.5442,0,0,0.4941,0.4973,0.503,0.5062,0.5111,0.513,0.5144,0.5193,0.5209,0.5279,0.528,0.5325,0.5413,0.5447,0.5476,0.5557,0.5557,0.5573,0.5608,0.5648,0.5657,0.5665,0.5693,0.5703,0.558,0.558,0.558,0,0.4967,0.5043,0.506,0.5114,0.5145,0.5147,0.5204,0.5235,0.5297,0.5319,0.5305,0.5413,0.5446,0.5528,0.5548,0.5571,0.5587,0.5567,0.5654,0.5662,0.567,0.5696,0.5707,0.5582,0.5582,0.5581,0.5581,0,0.5072,0.5125,0.5165,0.5223,0.5259,0.5315,0.5339,0.5373,0.5379,0.54,0.547,0.5509,0.5565,0.5585,0.5593,0.5668,0.5659,0.565,0.5625,0.5681,0.5707,0.5717,0.5584,0.5583,0.5583,0.5583,0,0,0.5158,0.5222,0.5237,0.5262,0.5315,0.5356,0.5411,0.5465,0.5493,0.5535,0.5581,0.5654,0.5644,0.5677,0.5688,0.5724,0.5784,0.5709,0.5711,0.5721,0.5868,0.5875,0.5886,0.5784,0.5786,0.5787,0.5863,0,0.5235,0.5333,0.5348,0.5433,0.5481,0.5482,0.553,0.5567,0.5588,0.5631,0.5654,0.5705,0.5689,0.5708,0.5743,0.5769,0.5814,0.5764,0.5827,0.5829,0.5814,0.59,0.5908,0.5978,0.5874,0.5875,0.5877,0,0.5339,0.5382,0.5472,0.5515,0.5536,0.5579,0.5628,0.567,0.5711,0.5724,0.5758,0.5764,0.5821,0.5792,0.587,0.5836,0.5862,0.5878,0.5881,0.5888,0.5856,0.5908,0.6001,0.6011,0.5893,0.5892,0.589,0,0.5391,0.5472,0.5536,0.5558,0.561,0.564,0.5663,0.5702,0.5733,0.5776,0.5796,0.5845,0.5872,0.591,0.5929,0.5907,0.6005,0.5979,0.6016,0.6016,0.6037,0.6036,0.6135,0.6055,0.6055,0.6054,0.6054,0,0.5476,0.5531,0.5559,0.5598,0.5659,0.5676,0.5735,0.5758,0.5792,0.5835,0.584,0.588,0.5903,0.5946,0.5962,0.6023,0.6035,0.6046,0.605,0.6046,0.6044,0.6063,0.6059,0.6057,0.6057,0.6056,0.6056,0,0.5545,0.5566,0.5635,0.5678,0.569,0.5733,0.577,0.5808,0.5827,0.5881,0.5895,0.5925,0.5977,0.5999,0.6063,0.6073,0.6142,0.6142,0.6128,0.6129,0.6165,0.6161,0.628,0.6295,0.6205,0.6206,0.6207,0,0.5597,0.5639,0.5686,0.5714,0.5738,0.5785,0.5815,0.5832,0.5864,0.5912,0.5944,0.5995,0.6036,0.6118,0.6146,0.6194,0.6195,0.6233,0.6202,0.6196,0.6194,0.6191,0.6195,0.6239,0.624,0.6241,0.6241,0,0.5688,0.5695,0.5739,0.5785,0.5821,0.5859,0.5896,0.5919,0.5942,0.5977,0.6028,0.6061,0.6124,0.6174,0.6224,0.6248,0.6248,0.625,0.6261,0.6258,0.6247,0.6252,0.6143,0.6248,0.6247,0.6247,0.6246,0.6246,0.5749,0.5786,0.5823,0.5871,0.59,0.5934,0.5971,0.5993,0.6036,0.6089,0.6096,0.6151,0.6189,0.6255,0.6281,0.6323,0.6314,0.633,0.6334,0.6338,0.634,0.624,0.6333,0.6333,0.6332,0.6332,0.6332,0,0.5839,0.5863,0.5906,0.5957,0.5994,0.5989,0.6029,0.6061,0.6108,0.6144,0.6184,0.6242,0.629,0.632,0.6369,0.6397,0.6398,0.6409,0.6407,0.6412,0.6346,0.6331,0.6407,0.6407,0.6407,0.6407,0.6407,0.6407,0.589,0.595,0.5962,0.6037,0.606,0.6113,0.6136,0.6167,0.6195,0.6259,0.6298,0.6317,0.635,0.64,0.6444,0.6452,0.6469,0.648,0.6487,0.6425,0.6417,0.641,0.6396,0.6484,0.6484,0.6549,0.655,0.655]},{"header":{"parameterUnit":"m.s-1","parameterCategory":1,"la1":30.2991,"la2":30.254,"lo1":-89.0895,"lo2":-89.0444,"dy":0.0017,"dx":0.0017,"nx":28,"ny":28,"refTime":"2024-04-20T03:00:00:Z","depth":0,"parameterNumber":3,"parameterNumberName":"V-component_of_WINDS"},"data":[0,0,0,0,0,0,0,0,0,0,0,0,0,0,0,0,0,0,0,0,0,0,0,0,0,0,0,0,0,0,0,0,0,0,0,0,0,0,0,0,0,0,0,0,0,0,0,0,0,0,0,0,0,0,0,0,0,0,3.2515,3.2515,0,3.2504,3.2504,3.2504,3.2487,3.2487,3.2486,3.2486,3.2474,3.2474,3.2474,0,0,0,0,0,0,0,0,0,0,0,0,0,3.2522,3.2522,3.2515,3.2515,3.2515,3.2504,3.2504,3.2504,3.2487,3.2487,3.2486,3.2486,3.2474,3.2474,3.2474,0,0,0,0,0,0,0,0,0,0,0,0,0,3.2516,3.2522,3.2515,3.2505,3.2504,3.2504,3.2504,3.2503,3.2487,3.2487,3.2486,3.2486,3.2474,3.2474,3.2474,3.2483,0,0,3.2474,3.2474,0,0,0,0,0,0,0,0,3.2516,3.2516,3.2507,3.2506,3.2505,3.2496,3.2502,3.2496,3.2487,3.2494,3.2486,3.2486,3.2482,3.2481,3.248,3.2482,3.2482,3.2474,3.2474,3.2474,3.2474,0,0,0,0,0,0,0,3.2517,3.2516,3.2511,3.2507,3.2506,3.2501,3.25,3.2501,3.249,3.2493,3.2492,3.2491,3.2481,3.248,3.248,3.2481,3.2474,3.2474,3.2474,3.2474,3.2489,3.2489,0,0,0,0,0,0,3.2519,3.2516,3.2511,3.251,3.251,3.2502,3.25,3.25,3.249,3.2489,3.2491,3.249,3.2481,3.248,3.2479,3.2488,3.2474,3.2474,3.2474,3.2489,3.2489,3.249,0,0,0,0,0,0,3.2519,3.2518,3.2511,3.2513,3.2512,3.2502,3.2501,3.25,3.2498,3.2489,3.2487,3.2492,3.248,3.2479,3.2482,3.2487,3.2474,3.2474,3.2488,3.2489,3.2489,3.2506,0,0,0,0,0,0,3.2519,3.2518,3.2522,3.2513,3.2512,3.2514,3.2502,3.25,3.2498,3.2497,3.2489,3.2487,3.248,3.2482,3.2482,3.2487,3.2474,3.2488,3.2488,3.2489,3.2505,3.2507,3.2509,0,0,0,0,0,3.2519,3.2527,3.2522,3.2521,3.2516,3.2515,3.2514,3.2505,3.2499,3.2502,3.2496,3.2488,3.2487,3.2482,3.2482,3.2487,3.2487,3.2488,3.2489,3.2504,3.2507,3.2509,0,0,0,0,0,0,3.2536,3.2526,3.252,3.2525,3.2521,3.2512,3.2515,3.2508,3.2506,3.2505,3.2494,3.2492,3.2496,3.2492,3.2487,3.2495,3.2486,3.2487,3.2497,3.25,3.2502,3.2502,3.2474,0,0,0,0,0,3.254,3.2541,3.2531,3.2537,3.2535,3.2526,3.2525,3.2518,3.2514,3.2512,3.2506,3.2502,3.25,3.25,3.2498,3.2504,3.2502,3.2508,3.251,3.2511,3.2512,3.2515,3.2517,3.2493,3.2493,3.2493,0,0,3.2549,3.2543,3.2544,3.254,3.2536,3.2536,3.2524,3.2525,3.2525,3.2512,3.2514,3.2509,3.2504,3.2508,3.2509,3.2505,3.2519,3.2513,3.2514,3.2514,3.2516,3.2518,3.252,3.2493,3.2493,3.2493,0,0,3.2565,3.2561,3.2565,3.2561,3.2555,3.2549,3.255,3.2542,3.2539,3.254,3.253,3.253,3.2528,3.2525,3.2523,3.2537,3.2529,3.2537,3.2548,3.255,3.2552,3.2554,3.2558,3.256,3.2538,3.2538,3.2538,0,3.2577,3.2577,3.2568,3.2569,3.2567,3.2555,3.2559,3.2556,3.255,3.2549,3.2543,3.2541,3.2536,3.2539,3.2543,3.2541,3.2542,3.2538,3.2552,3.2554,3.2555,3.256,3.2562,3.2539,3.2539,3.2538,3.2538,0,3.2592,3.2592,3.2596,3.259,3.2589,3.2591,3.2582,3.2581,3.2575,3.2569,3.2571,3.2565,3.2562,3.2562,3.2556,3.2564,3.2561,3.2554,3.2545,3.2559,3.2563,3.2565,3.254,3.254,3.2539,3.2539,0,0,3.2618,3.2607,3.2608,3.2606,3.2598,3.2598,3.26,3.2597,3.2597,3.2593,3.2594,3.2592,3.2586,3.2584,3.2577,3.2579,3.2591,3.2572,3.2572,3.2575,3.2599,3.2604,3.2606,3.2586,3.2586,3.2586,3.2599,0,3.2632,3.2635,3.2626,3.2631,3.2631,3.262,3.2621,3.2617,3.2611,3.261,3.2604,3.2603,3.2595,3.2594,3.2595,3.2589,3.2595,3.2588,3.2586,3.2586,3.2588,3.2608,3.2614,3.2626,3.2601,3.2601,3.2601,0,3.265,3.2647,3.2651,3.2643,3.2643,3.2645,3.2641,3.264,3.2635,3.2631,3.2628,3.262,3.2621,3.2612,3.2614,3.2609,3.2608,3.2604,3.2605,3.2604,3.2595,3.2608,3.263,3.2632,3.2604,3.2603,3.2603,0,3.2668,3.2665,3.2667,3.2665,3.2656,3.2658,3.2654,3.2648,3.2647,3.2643,3.2642,3.2639,3.2637,3.2635,3.2626,3.2621,3.2629,3.2619,3.2625,3.2625,3.2627,3.2627,3.2649,3.2627,3.2627,3.2626,3.2626,0,3.2685,3.2688,3.2676,3.2677,3.268,3.267,3.2674,3.2669,3.2664,3.2664,3.2654,3.2654,3.2643,3.2642,3.2635,3.2637,3.2636,3.2633,3.2631,3.2634,3.2634,3.2633,3.2632,3.2627,3.2627,3.2627,3.2627,0,3.2706,3.2698,3.2699,3.2691,3.2688,3.2691,3.2684,3.2684,3.2678,3.2679,3.2678,3.2669,3.2667,3.2658,3.2654,3.265,3.2654,3.265,3.2656,3.2655,3.2661,3.266,3.2683,3.2685,3.2661,3.2661,3.2662,0,3.2717,3.2719,3.2711,3.271,3.2707,3.2706,3.2704,3.2695,3.2693,3.2687,3.2689,3.2686,3.2684,3.2682,3.2674,3.2671,3.2667,3.2675,3.2667,3.2669,3.2667,3.2667,3.2667,3.2677,3.2678,3.2678,3.2678,0,3.2738,3.2733,3.2732,3.2728,3.2727,3.2724,3.272,3.272,3.2709,3.2708,3.2706,3.2705,3.2701,3.2698,3.2694,3.269,3.2682,3.2681,3.2682,3.2685,3.2688,3.2686,3.2661,3.268,3.268,3.268,3.268,3.268,3.2754,3.2755,3.2749,3.2748,3.2744,3.2741,3.2741,3.2735,3.2733,3.2729,3.2724,3.2723,3.2717,3.271,3.2707,3.2706,3.2701,3.2703,3.2703,3.2704,3.2705,3.2688,3.2705,3.2705,3.2705,3.2705,3.2705,0,3.2774,3.2769,3.2768,3.2763,3.2762,3.2755,3.275,3.2749,3.2749,3.2744,3.2742,3.2739,3.2737,3.2729,3.2726,3.2727,3.2723,3.2726,3.2726,3.2725,3.2709,3.2709,3.2729,3.2729,3.2729,3.2729,3.2729,3.2729,3.2784,3.2786,3.2781,3.2781,3.2776,3.2775,3.2773,3.277,3.2766,3.2764,3.2762,3.2757,3.2752,3.2748,3.2745,3.2743,3.2742,3.2746,3.2743,3.2729,3.2726,3.2724,3.2723,3.2746,3.2746,3.2759,3.2759,3.2759]}]]